Year,Month,Day,Hour,Minute,Value (Times are PST for temperature in C)
2009,04,06,00,00,4.90
2009,04,06,00,01,4.90
2009,04,06,00,02,4.90
2009,04,06,00,03,4.90
2009,04,06,00,04,4.90
2009,04,06,00,05,4.90
2009,04,06,00,06,4.90
2009,04,06,00,07,4.80
2009,04,06,00,08,4.80
2009,04,06,00,09,4.80
2009,04,06,00,10,4.80
2009,04,06,00,11,4.80
2009,04,06,00,12,4.80
2009,04,06,00,13,4.80
2009,04,06,00,14,4.80
2009,04,06,00,15,4.80
2009,04,06,00,16,4.80
2009,04,06,00,17,4.70
2009,04,06,00,18,4.70
2009,04,06,00,19,4.70
2009,04,06,00,20,4.70
2009,04,06,00,21,4.70
2009,04,06,00,22,4.70
2009,04,06,00,23,4.70
2009,04,06,00,24,4.70
2009,04,06,00,25,4.70
2009,04,06,00,26,4.70
2009,04,06,00,27,4.70
2009,04,06,00,28,4.60
2009,04,06,00,29,4.60
2009,04,06,00,30,4.60
2009,04,06,00,31,4.60
2009,04,06,00,32,4.60
2009,04,06,00,33,4.60
2009,04,06,00,34,4.60
2009,04,06,00,35,4.60
2009,04,06,00,36,4.60
2009,04,06,00,37,4.60
2009,04,06,00,38,4.60
2009,04,06,00,39,4.50
2009,04,06,00,40,4.50
2009,04,06,00,41,4.50
2009,04,06,00,42,4.50
2009,04,06,00,43,4.50
2009,04,06,00,44,4.50
2009,04,06,00,45,4.50
2009,04,06,00,46,4.50
2009,04,06,00,47,4.50
2009,04,06,00,48,4.50
2009,04,06,00,49,4.40
2009,04,06,00,50,4.40
2009,04,06,00,51,4.40
2009,04,06,00,52,4.40
2009,04,06,00,53,4.40
2009,04,06,00,54,4.40
2009,04,06,00,55,4.40
2009,04,06,00,56,4.40
2009,04,06,00,57,4.30
2009,04,06,00,58,4.30
2009,04,06,00,59,4.30
2009,04,06,01,00,4.30
2009,04,06,01,01,4.30
2009,04,06,01,02,4.30
2009,04,06,01,03,4.30
2009,04,06,01,04,4.30
2009,04,06,01,05,4.30
2009,04,06,01,06,4.20
2009,04,06,01,07,4.20
2009,04,06,01,08,4.20
2009,04,06,01,09,4.20
2009,04,06,01,10,4.20
2009,04,06,01,11,4.20
2009,04,06,01,12,4.20
2009,04,06,01,13,4.20
2009,04,06,01,14,4.20
2009,04,06,01,15,4.20
2009,04,06,01,16,4.20
2009,04,06,01,17,4.20
2009,04,06,01,18,4.20
2009,04,06,01,19,4.20
2009,04,06,01,20,4.20
2009,04,06,01,21,4.20
2009,04,06,01,22,4.10
2009,04,06,01,23,4.10
2009,04,06,01,24,4.10
2009,04,06,01,25,4.10
2009,04,06,01,26,4.10
2009,04,06,01,27,4.10
2009,04,06,01,28,4.10
2009,04,06,01,29,4.10
2009,04,06,01,30,4.10
2009,04,06,01,31,4.10
2009,04,06,01,32,4.10
2009,04,06,01,33,4.10
2009,04,06,01,34,4.10
2009,04,06,01,35,4.10
2009,04,06,01,36,4.10
2009,04,06,01,37,4.10
2009,04,06,01,38,4.10
2009,04,06,01,39,4.10
2009,04,06,01,40,4.10
2009,04,06,01,41,4.10
2009,04,06,01,42,4.10
2009,04,06,01,43,4.10
2009,04,06,01,44,4.10
2009,04,06,01,45,4.10
2009,04,06,01,46,4.10
2009,04,06,01,47,4.10
2009,04,06,01,48,4.00
2009,04,06,01,49,4.00
2009,04,06,01,50,4.00
2009,04,06,01,51,4.00
2009,04,06,01,52,4.00
2009,04,06,01,53,4.00
2009,04,06,01,54,4.00
2009,04,06,01,55,4.00
2009,04,06,01,56,4.00
2009,04,06,01,57,3.90
2009,04,06,01,58,3.90
2009,04,06,01,59,3.90
2009,04,06,02,00,3.90
2009,04,06,02,01,3.90
2009,04,06,02,02,3.90
2009,04,06,02,03,3.90
2009,04,06,02,04,3.90
2009,04,06,02,05,3.90
2009,04,06,02,06,3.90
2009,04,06,02,07,3.80
2009,04,06,02,08,3.80
2009,04,06,02,09,3.80
2009,04,06,02,10,3.80
2009,04,06,02,11,3.80
2009,04,06,02,12,3.80
2009,04,06,02,13,3.80
2009,04,06,02,14,3.80
2009,04,06,02,15,3.80
2009,04,06,02,16,3.70
2009,04,06,02,17,3.70
2009,04,06,02,18,3.70
2009,04,06,02,19,3.70
2009,04,06,02,20,3.70
2009,04,06,02,21,3.70
2009,04,06,02,22,3.70
2009,04,06,02,23,3.70
2009,04,06,02,24,3.70
2009,04,06,02,25,3.70
2009,04,06,02,26,3.60
2009,04,06,02,27,3.60
2009,04,06,02,28,3.60
2009,04,06,02,29,3.60
2009,04,06,02,30,3.60
2009,04,06,02,31,3.60
2009,04,06,02,32,3.60
2009,04,06,02,33,3.60
2009,04,06,02,34,3.60
2009,04,06,02,35,3.60
2009,04,06,02,36,3.60
2009,04,06,02,37,3.60
2009,04,06,02,38,3.50
2009,04,06,02,39,3.60
2009,04,06,02,40,3.50
2009,04,06,02,41,3.50
2009,04,06,02,42,3.60
2009,04,06,02,43,3.50
2009,04,06,02,44,3.60
2009,04,06,02,45,3.60
2009,04,06,02,46,3.60
2009,04,06,02,47,3.60
2009,04,06,02,48,3.60
2009,04,06,02,49,3.60
2009,04,06,02,50,3.60
2009,04,06,02,51,3.60
2009,04,06,02,52,3.60
2009,04,06,02,53,3.70
2009,04,06,02,54,3.70
2009,04,06,02,55,3.70
2009,04,06,02,56,3.70
2009,04,06,02,57,3.70
2009,04,06,02,58,3.70
2009,04,06,02,59,3.70
2009,04,06,03,00,3.70
2009,04,06,03,01,3.70
2009,04,06,03,02,3.80
2009,04,06,03,03,3.80
2009,04,06,03,04,3.80
2009,04,06,03,05,3.80
2009,04,06,03,06,3.80
2009,04,06,03,07,3.80
2009,04,06,03,08,3.80
2009,04,06,03,09,3.80
2009,04,06,03,10,3.80
2009,04,06,03,11,3.70
2009,04,06,03,12,3.70
2009,04,06,03,13,3.70
2009,04,06,03,14,3.70
2009,04,06,03,15,3.70
2009,04,06,03,16,3.70
2009,04,06,03,17,3.70
2009,04,06,03,18,3.70
2009,04,06,03,19,3.60
2009,04,06,03,20,3.60
2009,04,06,03,21,3.60
2009,04,06,03,22,3.60
2009,04,06,03,23,3.60
2009,04,06,03,24,3.50
2009,04,06,03,25,3.50
2009,04,06,03,26,3.50
2009,04,06,03,27,3.50
2009,04,06,03,28,3.50
2009,04,06,03,29,3.40
2009,04,06,03,30,3.40
2009,04,06,03,31,3.40
2009,04,06,03,32,3.40
2009,04,06,03,33,3.40
2009,04,06,03,34,3.40
2009,04,06,03,35,3.40
2009,04,06,03,36,3.30
2009,04,06,03,37,3.30
2009,04,06,03,38,3.30
2009,04,06,03,39,3.30
2009,04,06,03,40,3.30
2009,04,06,03,41,3.30
2009,04,06,03,42,3.30
2009,04,06,03,43,3.30
2009,04,06,03,44,3.30
2009,04,06,03,45,3.30
2009,04,06,03,46,3.30
2009,04,06,03,47,3.30
2009,04,06,03,48,3.30
2009,04,06,03,49,3.30
2009,04,06,03,50,3.30
2009,04,06,03,51,3.30
2009,04,06,03,52,3.30
2009,04,06,03,53,3.30
2009,04,06,03,54,3.30
2009,04,06,03,55,3.30
2009,04,06,03,56,3.30
2009,04,06,03,57,3.20
2009,04,06,03,58,3.20
2009,04,06,03,59,3.20
2009,04,06,04,00,3.20
2009,04,06,04,01,3.20
2009,04,06,04,02,3.20
2009,04,06,04,03,3.20
2009,04,06,04,04,3.20
2009,04,06,04,05,3.20
2009,04,06,04,06,3.20
2009,04,06,04,07,3.20
2009,04,06,04,08,3.10
2009,04,06,04,09,3.10
2009,04,06,04,10,3.10
2009,04,06,04,11,3.10
2009,04,06,04,12,3.10
2009,04,06,04,13,3.10
2009,04,06,04,14,3.10
2009,04,06,04,15,3.10
2009,04,06,04,16,3.10
2009,04,06,04,17,3.10
2009,04,06,04,18,3.00
2009,04,06,04,19,3.00
2009,04,06,04,20,3.00
2009,04,06,04,21,3.00
2009,04,06,04,22,3.00
2009,04,06,04,23,3.00
2009,04,06,04,24,3.00
2009,04,06,04,25,2.90
2009,04,06,04,26,2.90
2009,04,06,04,27,2.90
2009,04,06,04,28,2.90
2009,04,06,04,29,2.90
2009,04,06,04,30,2.90
2009,04,06,04,31,2.90
2009,04,06,04,32,2.90
2009,04,06,04,33,2.90
2009,04,06,04,34,2.80
2009,04,06,04,35,2.80
2009,04,06,04,36,2.80
2009,04,06,04,37,2.80
2009,04,06,04,38,2.80
2009,04,06,04,39,2.80
2009,04,06,04,40,2.80
2009,04,06,04,41,2.80
2009,04,06,04,42,2.80
2009,04,06,04,43,2.80
2009,04,06,04,44,2.80
2009,04,06,04,45,2.80
2009,04,06,04,46,2.80
2009,04,06,04,47,2.80
2009,04,06,04,48,2.70
2009,04,06,04,49,2.70
2009,04,06,04,50,2.70
2009,04,06,04,51,2.70
2009,04,06,04,52,2.70
2009,04,06,04,53,2.70
2009,04,06,04,54,2.70
2009,04,06,04,55,2.70
2009,04,06,04,56,2.70
2009,04,06,04,57,2.70
2009,04,06,04,58,2.70
2009,04,06,04,59,2.70
2009,04,06,05,00,2.70
2009,04,06,05,01,2.70
2009,04,06,05,02,2.70
2009,04,06,05,03,2.70
2009,04,06,05,04,2.60
2009,04,06,05,05,2.60
2009,04,06,05,06,2.60
2009,04,06,05,07,2.60
2009,04,06,05,08,2.60
2009,04,06,05,09,2.60
2009,04,06,05,10,2.60
2009,04,06,05,11,2.60
2009,04,06,05,12,2.60
2009,04,06,05,13,2.60
2009,04,06,05,14,2.60
2009,04,06,05,15,2.60
2009,04,06,05,16,2.60
2009,04,06,05,17,2.60
2009,04,06,05,18,2.50
2009,04,06,05,19,2.50
2009,04,06,05,20,2.50
2009,04,06,05,21,2.50
2009,04,06,05,22,2.50
2009,04,06,05,23,2.50
2009,04,06,05,24,2.50
2009,04,06,05,25,2.40
2009,04,06,05,26,2.40
2009,04,06,05,27,2.40
2009,04,06,05,28,2.40
2009,04,06,05,29,2.40
2009,04,06,05,30,2.40
2009,04,06,05,31,2.40
2009,04,06,05,32,2.30
2009,04,06,05,33,2.30
2009,04,06,05,34,2.30
2009,04,06,05,35,2.30
2009,04,06,05,36,2.30
2009,04,06,05,37,2.30
2009,04,06,05,38,2.30
2009,04,06,05,39,2.30
2009,04,06,05,40,2.30
2009,04,06,05,41,2.30
2009,04,06,05,42,2.30
2009,04,06,05,43,2.30
2009,04,06,05,44,2.30
2009,04,06,05,45,2.30
2009,04,06,05,46,2.30
2009,04,06,05,47,2.20
2009,04,06,05,48,2.20
2009,04,06,05,49,2.20
2009,04,06,05,50,2.20
2009,04,06,05,51,2.20
2009,04,06,05,52,2.20
2009,04,06,05,53,2.20
2009,04,06,05,54,2.20
2009,04,06,05,55,2.20
2009,04,06,05,56,2.20
2009,04,06,05,57,2.20
2009,04,06,05,58,2.20
2009,04,06,05,59,2.20
2009,04,06,06,00,2.20
2009,04,06,06,01,2.20
2009,04,06,06,02,2.20
2009,04,06,06,03,2.10
2009,04,06,06,04,2.10
2009,04,06,06,05,2.10
2009,04,06,06,06,2.10
2009,04,06,06,07,2.10
2009,04,06,06,08,2.10
2009,04,06,06,09,2.10
2009,04,06,06,10,2.10
2009,04,06,06,11,2.10
2009,04,06,06,12,2.10
2009,04,06,06,13,2.10
2009,04,06,06,14,2.10
2009,04,06,06,15,2.10
2009,04,06,06,16,2.10
2009,04,06,06,17,2.10
2009,04,06,06,18,2.10
2009,04,06,06,19,2.10
2009,04,06,06,20,2.10
2009,04,06,06,21,2.10
2009,04,06,06,22,2.10
2009,04,06,06,23,2.10
2009,04,06,06,24,2.10
2009,04,06,06,25,2.00
2009,04,06,06,26,2.10
2009,04,06,06,27,2.00
2009,04,06,06,28,2.00
2009,04,06,06,29,2.00
2009,04,06,06,30,2.00
2009,04,06,06,31,2.00
2009,04,06,06,32,2.00
2009,04,06,06,33,2.00
2009,04,06,06,34,2.00
2009,04,06,06,35,2.00
2009,04,06,06,36,2.00
2009,04,06,06,37,2.00
2009,04,06,06,38,2.00
2009,04,06,06,39,2.00
2009,04,06,06,40,2.00
2009,04,06,06,41,2.00
2009,04,06,06,42,1.90
2009,04,06,06,43,1.90
2009,04,06,06,44,1.90
2009,04,06,06,45,1.90
2009,04,06,06,46,1.90
2009,04,06,06,47,1.90
2009,04,06,06,48,1.90
2009,04,06,06,49,1.90
2009,04,06,06,50,1.90
2009,04,06,06,51,1.90
2009,04,06,06,52,1.80
2009,04,06,06,53,1.80
2009,04,06,06,54,1.80
2009,04,06,06,55,1.80
2009,04,06,06,56,1.80
2009,04,06,06,57,1.80
2009,04,06,06,58,1.80
2009,04,06,06,59,1.80
2009,04,06,07,00,1.80
2009,04,06,07,01,1.80
2009,04,06,07,02,1.80
2009,04,06,07,03,1.80
2009,04,06,07,04,1.80
2009,04,06,07,05,1.80
2009,04,06,07,06,1.80
2009,04,06,07,07,1.80
2009,04,06,07,08,1.80
2009,04,06,07,09,1.80
2009,04,06,07,10,1.80
2009,04,06,07,11,1.80
2009,04,06,07,12,1.80
2009,04,06,07,13,1.70
2009,04,06,07,14,1.70
2009,04,06,07,15,1.70
2009,04,06,07,16,1.70
2009,04,06,07,17,1.80
2009,04,06,07,18,1.80
2009,04,06,07,19,1.80
2009,04,06,07,20,1.80
2009,04,06,07,21,1.80
2009,04,06,07,22,1.80
2009,04,06,07,23,1.80
2009,04,06,07,24,1.80
2009,04,06,07,25,1.80
2009,04,06,07,26,1.80
2009,04,06,07,27,1.80
2009,04,06,07,28,1.80
2009,04,06,07,29,1.80
2009,04,06,07,30,1.80
2009,04,06,07,31,1.80
2009,04,06,07,32,1.80
2009,04,06,07,33,1.80
2009,04,06,07,34,1.80
2009,04,06,07,35,1.80
2009,04,06,07,36,1.80
2009,04,06,07,37,1.80
2009,04,06,07,38,1.80
2009,04,06,07,39,1.80
2009,04,06,07,40,1.80
2009,04,06,07,41,1.90
2009,04,06,07,42,1.90
2009,04,06,07,43,1.90
2009,04,06,07,44,1.90
2009,04,06,07,45,1.90
2009,04,06,07,46,1.90
2009,04,06,07,47,1.90
2009,04,06,07,48,1.90
2009,04,06,07,49,1.90
2009,04,06,07,50,1.90
2009,04,06,07,51,1.90
2009,04,06,07,52,1.90
2009,04,06,07,53,1.90
2009,04,06,07,54,2.00
2009,04,06,07,55,2.00
2009,04,06,07,56,2.00
2009,04,06,07,57,2.00
2009,04,06,07,58,2.10
2009,04,06,07,59,2.10
2009,04,06,08,00,2.10
2009,04,06,08,01,2.10
2009,04,06,08,02,2.10
2009,04,06,08,03,2.20
2009,04,06,08,04,2.20
2009,04,06,08,05,2.20
2009,04,06,08,06,2.20
2009,04,06,08,07,2.20
2009,04,06,08,08,2.30
2009,04,06,08,09,2.30
2009,04,06,08,10,2.30
2009,04,06,08,11,2.30
2009,04,06,08,12,2.30
2009,04,06,08,13,2.30
2009,04,06,08,14,2.40
2009,04,06,08,15,2.40
2009,04,06,08,16,2.40
2009,04,06,08,17,2.40
2009,04,06,08,18,2.40
2009,04,06,08,19,2.40
2009,04,06,08,20,2.50
2009,04,06,08,21,2.50
2009,04,06,08,22,2.50
2009,04,06,08,23,2.50
2009,04,06,08,24,2.50
2009,04,06,08,25,2.50
2009,04,06,08,26,2.50
2009,04,06,08,27,2.60
2009,04,06,08,28,2.60
2009,04,06,08,29,2.60
2009,04,06,08,30,2.60
2009,04,06,08,31,2.60
2009,04,06,08,32,2.60
2009,04,06,08,33,2.60
2009,04,06,08,34,2.60
2009,04,06,08,35,2.60
2009,04,06,08,36,2.60
2009,04,06,08,37,2.60
2009,04,06,08,38,2.70
2009,04,06,08,39,2.70
2009,04,06,08,40,2.70
2009,04,06,08,41,2.70
2009,04,06,08,42,2.70
2009,04,06,08,43,2.70
2009,04,06,08,44,2.80
2009,04,06,08,45,2.80
2009,04,06,08,46,2.80
2009,04,06,08,47,2.80
2009,04,06,08,48,2.80
2009,04,06,08,49,2.90
2009,04,06,08,50,2.90
2009,04,06,08,51,2.90
2009,04,06,08,52,2.90
2009,04,06,08,53,3.00
2009,04,06,08,54,3.00
2009,04,06,08,55,3.10
2009,04,06,08,56,3.10
2009,04,06,08,57,3.10
2009,04,06,08,58,3.10
2009,04,06,08,59,3.20
2009,04,06,09,00,3.20
2009,04,06,09,01,3.30
2009,04,06,09,02,3.30
2009,04,06,09,03,3.30
2009,04,06,09,04,3.30
2009,04,06,09,05,3.40
2009,04,06,09,06,3.40
2009,04,06,09,07,3.40
2009,04,06,09,08,3.50
2009,04,06,09,09,3.50
2009,04,06,09,10,3.60
2009,04,06,09,11,3.60
2009,04,06,09,12,3.60
2009,04,06,09,13,3.70
2009,04,06,09,14,3.70
2009,04,06,09,15,3.80
2009,04,06,09,16,3.80
2009,04,06,09,17,3.80
2009,04,06,09,18,3.90
2009,04,06,09,19,3.90
2009,04,06,09,20,4.00
2009,04,06,09,21,4.00
2009,04,06,09,22,4.10
2009,04,06,09,23,4.10
2009,04,06,09,24,4.20
2009,04,06,09,25,4.20
2009,04,06,09,26,4.30
2009,04,06,09,27,4.30
2009,04,06,09,28,4.30
2009,04,06,09,29,4.40
2009,04,06,09,30,4.50
2009,04,06,09,31,4.50
2009,04,06,09,32,4.60
2009,04,06,09,33,4.60
2009,04,06,09,34,4.60
2009,04,06,09,35,4.70
2009,04,06,09,36,4.70
2009,04,06,09,37,4.70
2009,04,06,09,38,4.80
2009,04,06,09,39,4.80
2009,04,06,09,40,4.90
2009,04,06,09,41,4.90
2009,04,06,09,42,5.00
2009,04,06,09,43,5.00
2009,04,06,09,44,5.10
2009,04,06,09,45,5.10
2009,04,06,09,46,5.20
2009,04,06,09,47,5.20
2009,04,06,09,48,5.30
2009,04,06,09,49,5.30
2009,04,06,09,50,5.40
2009,04,06,09,51,5.40
2009,04,06,09,52,5.50
2009,04,06,09,53,5.60
2009,04,06,09,54,5.70
2009,04,06,09,55,5.80
2009,04,06,09,56,5.90
2009,04,06,09,57,6.00
2009,04,06,09,58,6.10
2009,04,06,09,59,6.20
2009,04,06,10,00,6.30
2009,04,06,10,01,6.40
2009,04,06,10,02,6.40
2009,04,06,10,03,6.50
2009,04,06,10,04,6.60
2009,04,06,10,05,6.70
2009,04,06,10,06,6.70
2009,04,06,10,07,6.80
2009,04,06,10,08,6.80
2009,04,06,10,09,6.90
2009,04,06,10,10,6.90
2009,04,06,10,11,7.00
2009,04,06,10,12,7.10
2009,04,06,10,13,7.20
2009,04,06,10,14,7.20
2009,04,06,10,15,7.30
2009,04,06,10,16,7.40
2009,04,06,10,17,7.50
2009,04,06,10,18,7.50
2009,04,06,10,19,7.60
2009,04,06,10,20,7.70
2009,04,06,10,21,7.80
2009,04,06,10,22,7.90
2009,04,06,10,23,7.90
2009,04,06,10,24,8.00
2009,04,06,10,25,8.10
2009,04,06,10,26,8.10
2009,04,06,10,27,8.20
2009,04,06,10,28,8.30
2009,04,06,10,29,8.30
2009,04,06,10,30,8.40
2009,04,06,10,31,8.40
2009,04,06,10,32,8.50
2009,04,06,10,33,8.50
2009,04,06,10,34,8.60
2009,04,06,10,35,8.60
2009,04,06,10,36,8.70
2009,04,06,10,37,8.70
2009,04,06,10,38,8.80
2009,04,06,10,39,8.80
2009,04,06,10,40,8.90
2009,04,06,10,41,8.90
2009,04,06,10,42,9.00
2009,04,06,10,43,9.10
2009,04,06,10,44,9.20
2009,04,06,10,45,9.20
2009,04,06,10,46,9.30
2009,04,06,10,47,9.40
2009,04,06,10,48,9.50
2009,04,06,10,49,9.50
2009,04,06,10,50,9.60
2009,04,06,10,51,9.70
2009,04,06,10,52,9.80
2009,04,06,10,53,10.00
2009,04,06,10,54,10.20
2009,04,06,10,55,10.30
2009,04,06,10,56,10.40
2009,04,06,10,57,10.60
2009,04,06,10,58,10.80
2009,04,06,10,59,10.90
2009,04,06,11,00,11.00
2009,04,06,11,01,11.10
2009,04,06,11,02,11.20
2009,04,06,11,03,11.30
2009,04,06,11,04,11.30
2009,04,06,11,05,11.40
2009,04,06,11,06,11.50
2009,04,06,11,07,11.60
2009,04,06,11,08,11.60
2009,04,06,11,09,11.60
2009,04,06,11,10,11.70
2009,04,06,11,11,11.80
2009,04,06,11,12,11.80
2009,04,06,11,13,11.80
2009,04,06,11,14,11.90
2009,04,06,11,15,11.90
2009,04,06,11,16,12.00
2009,04,06,11,17,12.00
2009,04,06,11,18,12.10
2009,04,06,11,19,12.10
2009,04,06,11,20,12.20
2009,04,06,11,21,12.20
2009,04,06,11,22,12.20
2009,04,06,11,23,12.30
2009,04,06,11,24,12.30
2009,04,06,11,25,12.30
2009,04,06,11,26,12.40
2009,04,06,11,27,12.40
2009,04,06,11,28,12.40
2009,04,06,11,29,12.40
2009,04,06,11,30,12.50
2009,04,06,11,31,12.50
2009,04,06,11,32,12.60
2009,04,06,11,33,12.60
2009,04,06,11,34,12.70
2009,04,06,11,35,12.70
2009,04,06,11,36,12.80
2009,04,06,11,37,12.80
2009,04,06,11,38,12.80
2009,04,06,11,39,12.90
2009,04,06,11,40,12.90
2009,04,06,11,41,12.90
2009,04,06,11,42,12.90
2009,04,06,11,43,12.90
2009,04,06,11,44,13.00
2009,04,06,11,45,13.00
2009,04,06,11,46,13.00
2009,04,06,11,47,13.00
2009,04,06,11,48,13.00
2009,04,06,11,49,13.00
2009,04,06,11,50,12.90
2009,04,06,11,51,12.80
2009,04,06,11,52,12.80
2009,04,06,11,53,12.80
2009,04,06,11,54,12.80
2009,04,06,11,55,12.80
2009,04,06,11,56,12.80
2009,04,06,11,57,12.80
2009,04,06,11,58,12.80
2009,04,06,11,59,12.90
2009,04,06,12,00,13.00
2009,04,06,12,01,13.10
2009,04,06,12,02,13.20
2009,04,06,12,03,13.30
2009,04,06,12,04,13.40
2009,04,06,12,05,13.40
2009,04,06,12,06,13.50
2009,04,06,12,07,13.60
2009,04,06,12,08,13.60
2009,04,06,12,09,13.70
2009,04,06,12,10,13.80
2009,04,06,12,11,13.80
2009,04,06,12,12,13.90
2009,04,06,12,13,14.00
2009,04,06,12,14,14.10
2009,04,06,12,15,14.20
2009,04,06,12,16,14.30
2009,04,06,12,17,14.40
2009,04,06,12,18,14.50
2009,04,06,12,19,14.50
2009,04,06,12,20,14.60
2009,04,06,12,21,14.70
2009,04,06,12,22,14.80
2009,04,06,12,23,14.80
2009,04,06,12,24,14.90
2009,04,06,12,25,14.90
2009,04,06,12,26,15.00
2009,04,06,12,27,15.00
2009,04,06,12,28,15.00
2009,04,06,12,29,15.00
2009,04,06,12,30,15.00
2009,04,06,12,31,15.00
2009,04,06,12,32,15.00
2009,04,06,12,33,15.00
2009,04,06,12,34,15.00
2009,04,06,12,35,15.00
2009,04,06,12,36,15.00
2009,04,06,12,37,15.00
2009,04,06,12,38,15.00
2009,04,06,12,39,15.00
2009,04,06,12,40,14.90
2009,04,06,12,41,14.90
2009,04,06,12,42,14.90
2009,04,06,12,43,14.80
2009,04,06,12,44,14.80
2009,04,06,12,45,14.80
2009,04,06,12,46,14.80
2009,04,06,12,47,14.80
2009,04,06,12,48,14.80
2009,04,06,12,49,14.80
2009,04,06,12,50,14.80
2009,04,06,12,51,14.70
2009,04,06,12,52,14.70
2009,04,06,12,53,14.70
2009,04,06,12,54,14.70
2009,04,06,12,55,14.70
2009,04,06,12,56,14.70
2009,04,06,12,57,14.70
2009,04,06,12,58,14.70
2009,04,06,12,59,14.70
2009,04,06,13,00,14.70
2009,04,06,13,01,14.70
2009,04,06,13,02,14.70
2009,04,06,13,03,14.70
2009,04,06,13,04,14.70
2009,04,06,13,05,14.70
2009,04,06,13,06,14.70
2009,04,06,13,07,14.70
2009,04,06,13,08,14.70
2009,04,06,13,09,14.70
2009,04,06,13,10,14.70
2009,04,06,13,11,14.70
2009,04,06,13,12,14.80
2009,04,06,13,13,14.80
2009,04,06,13,14,14.80
2009,04,06,13,15,14.80
2009,04,06,13,16,14.90
2009,04,06,13,17,14.90
2009,04,06,13,18,15.00
2009,04,06,13,19,15.00
2009,04,06,13,20,15.00
2009,04,06,13,21,15.00
2009,04,06,13,22,15.00
2009,04,06,13,23,15.00
2009,04,06,13,24,15.00
2009,04,06,13,25,15.00
2009,04,06,13,26,15.00
2009,04,06,13,27,15.00
2009,04,06,13,28,15.00
2009,04,06,13,29,15.00
2009,04,06,13,30,15.00
2009,04,06,13,31,15.00
2009,04,06,13,32,15.00
2009,04,06,13,33,15.00
2009,04,06,13,34,15.00
2009,04,06,13,35,15.10
2009,04,06,13,36,15.10
2009,04,06,13,37,15.20
2009,04,06,13,38,15.30
2009,04,06,13,39,15.30
2009,04,06,13,40,15.40
2009,04,06,13,41,15.50
2009,04,06,13,42,15.60
2009,04,06,13,43,15.60
2009,04,06,13,44,15.70
2009,04,06,13,45,15.70
2009,04,06,13,46,15.80
2009,04,06,13,47,15.90
2009,04,06,13,48,15.90
2009,04,06,13,49,16.00
2009,04,06,13,50,16.20
2009,04,06,13,51,16.20
2009,04,06,13,52,16.30
2009,04,06,13,53,16.30
2009,04,06,13,54,16.40
2009,04,06,13,55,16.40
2009,04,06,13,56,16.50
2009,04,06,13,57,16.50
2009,04,06,13,58,16.60
2009,04,06,13,59,16.50
2009,04,06,14,00,16.40
2009,04,06,14,01,16.40
2009,04,06,14,02,16.50
2009,04,06,14,03,16.60
2009,04,06,14,04,16.60
2009,04,06,14,05,16.70
2009,04,06,14,06,16.80
2009,04,06,14,07,16.70
2009,04,06,14,08,16.70
2009,04,06,14,09,16.70
2009,04,06,14,10,16.70
2009,04,06,14,11,16.70
2009,04,06,14,12,16.70
2009,04,06,14,13,16.60
2009,04,06,14,14,16.60
2009,04,06,14,15,16.70
2009,04,06,14,16,16.70
2009,04,06,14,17,16.80
2009,04,06,14,18,17.00
2009,04,06,14,19,17.10
2009,04,06,14,20,17.10
2009,04,06,14,21,17.20
2009,04,06,14,22,17.30
2009,04,06,14,23,17.40
2009,04,06,14,24,17.50
2009,04,06,14,25,17.60
2009,04,06,14,26,17.70
2009,04,06,14,27,17.70
2009,04,06,14,28,17.80
2009,04,06,14,29,17.90
2009,04,06,14,30,18.00
2009,04,06,14,31,18.00
2009,04,06,14,32,18.10
2009,04,06,14,33,18.20
2009,04,06,14,34,18.20
2009,04,06,14,35,18.20
2009,04,06,14,36,18.20
2009,04,06,14,37,18.20
2009,04,06,14,38,18.20
2009,04,06,14,39,18.30
2009,04,06,14,40,18.40
2009,04,06,14,41,18.50
2009,04,06,14,42,18.60
2009,04,06,14,43,18.70
2009,04,06,14,44,18.70
2009,04,06,14,45,18.80
2009,04,06,14,46,18.80
2009,04,06,14,47,18.80
2009,04,06,14,48,18.80
2009,04,06,14,49,18.80
2009,04,06,14,50,18.90
2009,04,06,14,51,19.00
2009,04,06,14,52,19.10
2009,04,06,14,53,19.20
2009,04,06,14,54,19.20
2009,04,06,14,55,19.20
2009,04,06,14,56,19.10
2009,04,06,14,57,19.10
2009,04,06,14,58,19.00
2009,04,06,14,59,19.00
2009,04,06,15,00,18.90
2009,04,06,15,01,18.90
2009,04,06,15,02,18.80
2009,04,06,15,03,18.80
2009,04,06,15,04,18.70
2009,04,06,15,05,18.70
2009,04,06,15,06,18.70
2009,04,06,15,07,18.70
2009,04,06,15,08,18.60
2009,04,06,15,09,18.60
2009,04,06,15,10,18.60
2009,04,06,15,11,18.60
2009,04,06,15,12,18.60
2009,04,06,15,13,18.70
2009,04,06,15,14,18.70
2009,04,06,15,15,18.70
2009,04,06,15,16,18.80
2009,04,06,15,17,18.90
2009,04,06,15,18,18.90
2009,04,06,15,19,18.90
2009,04,06,15,20,18.90
2009,04,06,15,21,18.90
2009,04,06,15,22,18.90
2009,04,06,15,23,19.00
2009,04,06,15,24,19.00
2009,04,06,15,25,19.10
2009,04,06,15,26,19.10
2009,04,06,15,27,19.10
2009,04,06,15,28,19.00
2009,04,06,15,29,19.00
2009,04,06,15,30,19.00
2009,04,06,15,31,19.10
2009,04,06,15,32,19.10
2009,04,06,15,33,19.00
2009,04,06,15,34,19.00
2009,04,06,15,35,18.90
2009,04,06,15,36,18.90
2009,04,06,15,37,18.80
2009,04,06,15,38,18.80
2009,04,06,15,39,18.80
2009,04,06,15,40,18.80
2009,04,06,15,41,18.90
2009,04,06,15,42,19.00
2009,04,06,15,43,19.10
2009,04,06,15,44,19.20
2009,04,06,15,45,19.30
2009,04,06,15,46,19.40
2009,04,06,15,47,19.50
2009,04,06,15,48,19.60
2009,04,06,15,49,19.60
2009,04,06,15,50,19.70
2009,04,06,15,51,19.70
2009,04,06,15,52,19.70
2009,04,06,15,53,19.70
2009,04,06,15,54,19.70
2009,04,06,15,55,19.70
2009,04,06,15,56,19.70
2009,04,06,15,57,19.70
2009,04,06,15,58,19.70
2009,04,06,15,59,19.70
2009,04,06,16,00,19.70
2009,04,06,16,01,19.70
2009,04,06,16,02,19.60
2009,04,06,16,03,19.60
2009,04,06,16,04,19.60
2009,04,06,16,05,19.60
2009,04,06,16,06,19.50
2009,04,06,16,07,19.50
2009,04,06,16,08,19.40
2009,04,06,16,09,19.40
2009,04,06,16,10,19.30
2009,04,06,16,11,19.30
2009,04,06,16,12,19.30
2009,04,06,16,13,19.30
2009,04,06,16,14,19.30
2009,04,06,16,15,19.20
2009,04,06,16,16,19.20
2009,04,06,16,17,19.10
2009,04,06,16,18,19.00
2009,04,06,16,19,18.90
2009,04,06,16,20,18.80
2009,04,06,16,21,18.70
2009,04,06,16,22,18.60
2009,04,06,16,23,18.50
2009,04,06,16,24,18.50
2009,04,06,16,25,18.40
2009,04,06,16,26,18.30
2009,04,06,16,27,18.30
2009,04,06,16,28,18.20
2009,04,06,16,29,18.20
2009,04,06,16,30,18.10
2009,04,06,16,31,18.10
2009,04,06,16,32,18.00
2009,04,06,16,33,17.90
2009,04,06,16,34,17.90
2009,04,06,16,35,17.80
2009,04,06,16,36,17.80
2009,04,06,16,37,17.80
2009,04,06,16,38,17.70
2009,04,06,16,39,17.70
2009,04,06,16,40,17.70
2009,04,06,16,41,17.60
2009,04,06,16,42,17.60
2009,04,06,16,43,17.60
2009,04,06,16,44,17.60
2009,04,06,16,45,17.60
2009,04,06,16,46,17.60
2009,04,06,16,47,17.50
2009,04,06,16,48,17.50
2009,04,06,16,49,17.50
2009,04,06,16,50,17.50
2009,04,06,16,51,17.40
2009,04,06,16,52,17.30
2009,04,06,16,53,17.30
2009,04,06,16,54,17.30
2009,04,06,16,55,17.20
2009,04,06,16,56,17.20
2009,04,06,16,57,17.20
2009,04,06,16,58,17.10
2009,04,06,16,59,17.10
2009,04,06,17,00,17.10
2009,04,06,17,01,17.10
2009,04,06,17,02,17.20
2009,04,06,17,03,17.20
2009,04,06,17,04,17.20
2009,04,06,17,05,17.20
2009,04,06,17,06,17.20
2009,04,06,17,07,17.20
2009,04,06,17,08,17.20
2009,04,06,17,09,17.20
2009,04,06,17,10,17.20
2009,04,06,17,11,17.30
2009,04,06,17,12,17.30
2009,04,06,17,13,17.30
2009,04,06,17,14,17.30
2009,04,06,17,15,17.40
2009,04,06,17,16,17.40
2009,04,06,17,17,17.40
2009,04,06,17,18,17.50
2009,04,06,17,19,17.60
2009,04,06,17,20,17.60
2009,04,06,17,21,17.70
2009,04,06,17,22,17.80
2009,04,06,17,23,17.80
2009,04,06,17,24,17.80
2009,04,06,17,25,17.90
2009,04,06,17,26,17.90
2009,04,06,17,27,18.00
2009,04,06,17,28,18.00
2009,04,06,17,29,18.00
2009,04,06,17,30,18.10
2009,04,06,17,31,18.10
2009,04,06,17,32,18.10
2009,04,06,17,33,18.20
2009,04,06,17,34,18.20
2009,04,06,17,35,18.20
2009,04,06,17,36,18.20
2009,04,06,17,37,18.20
2009,04,06,17,38,18.20
2009,04,06,17,39,18.20
2009,04,06,17,40,18.20
2009,04,06,17,41,18.20
2009,04,06,17,42,18.20
2009,04,06,17,43,18.20
2009,04,06,17,44,18.20
2009,04,06,17,45,18.20
2009,04,06,17,46,18.10
2009,04,06,17,47,18.10